Livingston, MT

1:42 PM MDT on September 25, 2017 (GMT -0600)
Mission

Weather History for KLVM - September, 2013

Change the Weather History Date:

Tuesday, September 24, 2013

  Actual Average Record
Temperature  
Mean Temperature 51 °F 52 °F  
Max Temperature 65 °F 68 °F 91 °F (2001)
Min Temperature 37 °F 37 °F 22 °F (1984)
Degree Days  
Heating Degree Days 14 13  
Month to date heating degree days 78 207  
Since 1 July heating degree days 78 325  
Cooling Degree Days 0 0  
Month to date cooling degree days 56 13  
Year to date cooling degree days 495 228  
Growing Degree Days 2 (Base 50)    
Moisture  
Dew Point 35 °F    
Average Humidity 56    
Maximum Humidity 76    
Minimum Humidity 36    
Precipitation  
Precipitation 0.06 in 0.05 in 0.39 in (1948)
Month to date precipitation 1.73 0.95  
Year to date precipitation 9.25 12.18  
Sea Level Pressure  
Sea Level Pressure 29.80 in    
Wind  
Wind Speed 12 mph (WSW)    
Max Wind Speed 49 mph    
Max Gust Speed 62 mph    
Visibility 10 miles    
Events Rain , Thunderstorm    
T = Trace of Precipitation, MM = Missing Value Source: NWS Daily Summary

Daily Weather History Graph

Daily Weather History Graph

Search for Another Location

Airport or City:

Trip Planner

Search our weather history database for the weather conditions in past years. The results will help you decide how hot, cold, wet, or windy it might be!

Date:

Astronomy

Sep. 24, 2013 Rise Set
Actual Time 7:11 AM MDT 7:14 PM MDT
Civil Twilight 6:42 AM MDT 7:44 PM MDT
Nautical Twilight 6:07 AM MDT 8:19 PM MDT
Astronomical Twilight 5:31 AM MDT 8:54 PM MDT
Moon 10:19 PM MDT (9/24) 12:44 PM MDT (9/24)
Length of Visible Light 13h 02m
Length of Day
12h 03m
Waning Gibbous, 72% of the Moon is Illuminated
Sep 24
Waning Gibbous
Sep 26
Last Quarter
Oct 4
New
Oct 11
First Quarter
Oct 18
Full

Hourly Weather History & Observations

Time (MDT) Temp. Windchill Dew Point Humidity Pressure Visibility Wind Dir Wind Speed Gust Speed Precip Events Conditions
12:53 AM 48.9 °F - 30.9 °F 50% 29.88 in 10.0 mi WNW 9.2 mph - N/A   Clear
1:53 AM 52.0 °F - 30.0 °F 43% 29.91 in 10.0 mi NW 12.7 mph - N/A   Clear
2:53 AM 44.1 °F 42.5 °F 32.0 °F 63% 29.93 in 10.0 mi NW 3.5 mph - N/A   Clear
3:53 AM 39.0 °F - 30.9 °F 73% 29.94 in 10.0 mi Calm Calm - N/A   Clear
4:53 AM 39.9 °F 33.4 °F 32.0 °F 73% 29.93 in 10.0 mi NW 10.4 mph - N/A   Clear
5:53 AM 41.0 °F 33.1 °F 32.0 °F 70% 29.91 in 10.0 mi NNW 15.0 mph - N/A   Clear
6:53 AM 42.1 °F - 32.0 °F 67% 29.91 in 10.0 mi Calm Calm - N/A   Scattered Clouds
7:53 AM 42.1 °F - 33.1 °F 70% 29.91 in 10.0 mi Calm Calm - N/A   Scattered Clouds
8:53 AM 48.0 °F - 34.0 °F 58% 29.91 in 10.0 mi East 3.5 mph - N/A   Mostly Cloudy
9:53 AM 55.9 °F - 35.1 °F 45% 29.83 in 10.0 mi East 9.2 mph - N/A   Clear
10:53 AM 55.0 °F - 35.1 °F 47% 29.83 in 10.0 mi East 8.1 mph - N/A   Overcast
11:53 AM 59.0 °F - 35.1 °F 41% 29.79 in 10.0 mi East 10.4 mph - N/A   Mostly Cloudy
12:53 PM 60.1 °F - 37.0 °F 42% 29.75 in 10.0 mi East 11.5 mph - N/A   Overcast
1:53 PM 61.0 °F - 36.0 °F 39% 29.70 in 10.0 mi East 9.2 mph - N/A   Mostly Cloudy
2:53 PM 61.0 °F - 37.0 °F 41% 29.70 in 10.0 mi East 15.0 mph 21.9 mph N/A   Overcast
3:53 PM 62.1 °F - 39.0 °F 43% 29.70 in 10.0 mi South 8.1 mph - 0.00 in   Overcast
4:53 PM 63.0 °F - 35.1 °F 35% 29.67 in 10.0 mi SW 17.3 mph 28.8 mph N/A   Partly Cloudy
5:53 PM 64.0 °F - 37.0 °F 37% 29.66 in 10.0 mi SW 26.5 mph 39.1 mph N/A   Clear
6:53 PM 61.0 °F - 37.0 °F 41% 29.65 in 10.0 mi SSW 34.5 mph 47.2 mph N/A   Mostly Cloudy
7:48 PM 57.2 °F - 39.2 °F 51% 29.72 in 10.0 mi SW 13.8 mph 20.7 mph 0.00 in   Scattered Clouds
7:53 PM 57.0 °F - 39.0 °F 51% 29.68 in 10.0 mi SW 13.8 mph 21.9 mph 0.00 in   Partly Cloudy
8:35 PM 57.2 °F - 39.2 °F 51% 29.73 in 10.0 mi SW 24.2 mph 31.1 mph 0.00 in Thunderstorm Scattered Clouds
8:44 PM 44.6 °F 32.7 °F 37.4 °F 76% 29.77 in 4.0 mi WSW 46.0 mph 62.1 mph 0.06 in Rain , Thunderstorm Thunderstorms and Rain
8:53 PM 45.0 °F 33.8 °F 39.0 °F 80% 29.78 in 10.0 mi WSW 40.3 mph 54.1 mph 0.06 in Rain , Thunderstorm Light Thunderstorms and Rain
9:09 PM 44.6 °F 37.2 °F - N/A% 29.84 in 10.0 mi WSW 17.3 mph 25.3 mph 0.00 in Rain Light Rain
9:19 PM 44.6 °F 38.8 °F - N/A% 29.85 in 10.0 mi WSW 11.5 mph - 0.00 in   Overcast
9:53 PM 46.0 °F 42.5 °F - N/A% 29.76 in 10.0 mi NNW 6.9 mph - 0.00 in   Overcast
10:53 PM 45.0 °F 40.6 °F - N/A% 29.74 in 10.0 mi WNW 8.1 mph - 0.00 in   Scattered Clouds
11:53 PM 44.1 °F 38.6 °F - N/A% 29.72 in 10.0 mi WSW 10.4 mph - N/A   Clear